FW0839 Weather Reports


Display with metric or nautical units.
time (UTC)temp
F
wind
direction
speed
MPH
gust
MPH
rain 1hr
in
rain 24hr
in
rain mn
in
humidity
%
barometer
mb
20260906040009 67 35 0.0 0.0 0.00 0.05 0.00 98 1013.6
20260906034508 68 36 0.0 0.0 0.00 0.05 0.05 98 1014.1
20260906033008 68 36 0.0 0.0 0.00 0.05 0.05 98 1014.1
20260906031510 68 35 0.0 0.0 0.00 0.05 0.05 98 1014.5
20260906030007 68 34 0.0 0.0 0.00 0.05 0.05 98 1014.4
20260906024506 68 33 0.0 0.0 0.00 0.05 0.05 98 1014.1
20260906023005 68 34 0.0 0.0 0.00 0.05 0.05 97 1014.0
20260906021505 68 33 0.0 0.0 0.00 0.05 0.05 98 1013.6
20260906020004 69 32 0.0 0.0 0.00 0.05 0.05 97 1013.5
20260906014504 69 32 0.0 0.0 0.00 0.05 0.05 97 1013.4
20260906013004 69 29 0.0 0.0 0.00 0.05 0.05 97 1013.3
20260906011502 69 28 0.0 0.0 0.00 0.05 0.05 97 1013.1
20260906010002 70 27 0.0 0.0 0.00 0.05 0.05 96 1013.0
20260906004612 70 28 0.0 0.0 0.00 0.05 0.05 96 1012.8
20260906003104 70 28 0.0 1.0 0.00 0.05 0.05 95 1012.5
20260906001600 71 24 0.0 4.0 0.00 0.05 0.05 94 1012.4
20260906000107 72 24 0.0 0.0 0.00 0.05 0.05 94 1012.4
20260905234602 72 27 0.0 4.0 0.00 0.05 0.05 93 1012.3
20260905233059 73 156 0.0 0.0 0.00 0.05 0.05 92 1012.1
20260905231558 74 165 0.0 0.0 0.00 0.05 0.05 90 1011.9
20260905230057 75 167 0.0 0.0 0.00 0.05 0.05 87 1011.9
20260905224605 76 167 0.0 5.0 0.00 0.05 0.05 86 1011.8
20260905223055 76 224 0.0 7.0 0.00 0.05 0.05 85 1011.8
20260905221555 75 154 1.0 6.0 0.00 0.05 0.05 85 1011.8
20260905220058 75 230 3.0 7.0 0.00 0.05 0.05 87 1011.8
20260905214553 75 232 3.0 7.0 0.00 0.05 0.05 88 1011.9
20260905213053 75 194 3.0 9.0 0.00 0.05 0.05 86 1012.0
20260905211551 75 211 2.0 6.0 0.00 0.05 0.05 92 1012.1
20260905210049 74 238 2.0 5.0 0.00 0.05 0.05 92 1012.4
20260905204548 73 250 2.0 5.0 0.00 0.05 0.05 97 1012.4
20260905203047 72 213 2.0 7.0 0.00 0.05 0.05 99 1012.6
20260905201546 71 249 1.0 4.0 0.00 0.05 0.05 100 1012.8
20260905200051 70 302 0.0 0.0 0.00 0.05 0.05 99 1013.1
20260905194543 70 288 0.0 6.0 0.00 0.05 0.05 99 1013.0
20260905193043 69 21 0.0 4.0 0.00 0.05 0.05 98 1012.8
20260905191546 69 360 0.0 4.0 0.00 0.05 0.05 98 1013.2
20260905190049 69 360 0.0 7.0 0.00 0.05 0.05 98 1013.0
20260905184552 69 21 0.0 5.0 0.03 0.05 0.05 98 1013.4
20260905183046 69 360 1.0 6.0 0.05 0.05 0.05 96 1013.6
20260905181539 70 28 3.0 10.0 0.05 0.05 0.05 94 1013.8
20260905180036 72 13 0.0 5.0 0.05 0.05 0.05 92 1013.6
20260905174535 76 14 6.0 16.0 0.02 0.02 0.02 87 1014.6
20260905173035 81 49 5.0 13.0 0.00 0.00 0.00 76 1013.7
20260905171536 82 48 3.0 7.0 0.00 0.00 0.00 75 1013.7
20260905170030 82 330 6.0 12.0 0.00 0.00 0.00 79 1013.5
20260905164535 81 355 2.0 5.0 0.00 0.00 0.00 79 1013.6
20260905163028 81 69 3.0 8.0 0.00 0.00 0.00 80 1013.7
20260905161526 81 309 1.0 6.0 0.00 0.00 0.00 80 1014.1
20260905160021 79 146 1.0 4.0 0.00 0.00 0.00 87 1014.3
20260905154518 78 198 0.0 2.0 0.00 0.00 0.00 88 1014.4
20260905153015 78 209 1.0 7.0 0.00 0.00 0.00 90 1014.3
20260905151512 76 207 4.0 6.0 0.00 0.00 0.00 93 1014.2
20260905150007 75 186 1.0 4.0 0.00 0.00 0.00 94 1014.2
20260905144502 74 215 3.0 7.0 0.00 0.00 0.00 97 1014.2
20260905143058 72 225 3.0 5.0 0.00 0.00 0.00 98 1014.4
20260905141557 71 238 0.0 0.0 0.00 0.00 0.00 99 1014.5
20260905140104 71 230 0.0 2.0 0.00 0.00 0.00 99 1014.5
20260905134551 70 220 0.0 2.0 0.00 0.00 0.00 100 1014.6
20260905133050 69 346 0.0 0.0 0.00 0.00 0.00 100 1014.8
20260905131603 68 188 0.0 0.0 0.00 0.00 0.00 100 1014.9
20260905130051 67 38 0.0 0.0 0.00 0.00 0.00 100 1015.1
20260905124548 67 31 0.0 0.0 0.00 0.00 0.00 100 1015.1
20260905123043 0 143 0.0 0.0 0.00 0.00 0.00 1015.0
20260905121540 0 143 0.0 0.0 0.00 0.00 0.00 1014.8
20260905120040 0 143 0.0 0.0 0.00 0.00 0.00 1014.8
20260905114531 0 143 0.0 1.0 0.00 0.00 0.00 1014.6
20260905113026 0 146 0.0 0.0 0.00 0.00 0.00 1014.6
20260905111542 0 146 0.0 0.0 0.00 0.00 0.00 1014.2
20260905110017 0 145 0.0 0.0 0.00 0.00 0.00 1014.2
20260905104513 0 145 0.0 0.0 0.00 0.00 0.00 1014.1
20260905103015 0 145 0.0 0.0 0.00 0.00 0.00 1013.8
20260905101505 0 145 0.0 0.0 0.00 0.00 0.00 1013.6
20260905100101 0 145 0.0 0.0 0.00 0.00 0.00 1013.6
20260905094557 0 145 0.0 0.0 0.00 0.00 0.00 1013.7
20260905093052 0 145 0.0 0.0 0.00 0.00 0.00 1013.8
20260905091550 68 145 0.0 0.0 0.00 0.00 0.00 96 1013.6
20260905090047 68 145 0.0 0.0 0.00 0.00 0.00 96 1013.7
20260905084545 69 145 0.0 0.0 0.00 0.00 0.00 96 1013.8
20260905083045 69 145 0.0 0.0 0.00 0.00 0.00 95 1014.0
20260905081544 69 145 0.0 0.0 0.00 0.00 0.00 95 1013.9
20260905080042 69 145 0.0 0.0 0.00 0.00 0.00 95 1014.0
20260905074546 70 145 0.0 0.0 0.00 0.00 0.00 94 1014.1
20260905073055 70 145 0.0 0.0 0.00 0.00 0.00 94 1014.2
20260905071544 70 31 0.0 0.0 0.00 0.00 0.00 94 1014.2
20260905070037 70 30 0.0 0.0 0.00 0.00 0.00 95 1014.4
20260905064537 70 30 0.0 0.0 0.00 0.00 0.00 95 1014.4
20260905063035 70 29 0.0 0.0 0.00 0.00 0.00 94 1014.5
20260905061533 70 30 0.0 0.0 0.00 0.00 0.00 95 1014.5
20260905060036 70 29 0.0 0.0 0.00 0.00 0.00 95 1014.8
20260905054540 70 28 0.0 0.0 0.00 0.00 0.00 95 1015.1
20260905053028 70 28 0.0 0.0 0.00 0.00 0.00 95 1015.1
20260905051527 70 28 0.0 0.0 0.00 0.00 0.00 95 1015.1
20260905050027 71 29 0.0 0.0 0.00 0.00 0.00 95 1015.2
20260905044526 71 30 0.0 0.0 0.00 0.00 0.00 95 1015.2
20260905043028 71 30 0.0 0.0 0.00 0.00 0.00 95 1015.2
20260905041525 71 30 0.0 0.0 0.00 0.00 0.00 94 1015.1